• Join FlightAware (Why Join?)
  • Login
  • US Flag 
01:00AM EDT


 

Airport Tracker/Info


-or-


 

Live Flight TrackerFlight Track Log ✈ EJA729 ✈ 23-Jun-2013 ✈ KBWI - KLGA

Flight Track Log - Related Links

Times and Time Zones

All times are in EDT time to prevent confusion due to time zone crossing. See the EJA729 flight status page for this flight to view local times or setup timezone preferences in your user account.

Time Position Orientation Groundspeed Altitude Reporting Facility
EDT Latitude Longitude Course Direction KTS MPH feet Rate Location/Type
05:21PM 39.2000 -76.6833 74° East 185 213 1,700  Level Potomac TRACON
05:23PM 39.2306 -76.5481 74° East 233 268 8,300 3,180 Climbing Washington Center
05:24PM 39.2106 -76.4514 105° East 251 289 11,600 3,120 Climbing Washington Center
05:25PM 39.2236 -76.3311 82° East 283 326 14,700 2,880 Climbing Washington Center
05:26PM 39.2681 -76.2081 65° Northeast 330 380 17,500 2,100 Climbing Washington Center
05:27PM 39.3186 -76.0958 60° Northeast 352 405 18,900 660 Climbing Washington Center
05:28PM 39.3733 -75.9486 64° Northeast 405 466 18,900  Level Washington Center
05:29PM 39.4239 -75.8011 66° East 430 495 19,000  Climbing Washington Center
05:30PM 39.4781 -75.6642 63° Northeast 430 495 19,000  Level Washington Center
05:31PM 39.5489 -75.5486 51° Northeast 415 478 19,000  Level Washington Center
05:32PM 39.5989 -75.4111 65° Northeast 410 472 19,000  Level Washington Center
05:33PM 39.6381 -75.2600 71° East 421 484 19,000  Level Washington Center
05:34PM 39.7064 -75.1222 57° Northeast 413 475 19,000 -360 Level Washington Center
05:35PM 39.7831 -75.0489 36° Northeast 380 437 18,300 -2,040 Descending Washington Center
05:36PM 39.8681 -74.9561 40° Northeast 360 414 15,000 -2,880 Descending Washington Center
05:37PM 39.9447 -74.8689 41° Northeast 355 409 12,500 -2,040 Descending Washington Center
05:38PM 40.0086 -74.7761 48° Northeast 349 402 10,900 -840 Descending Washington Center
05:39PM 40.0683 -74.6886 48° Northeast 336 387 10,900  Level Washington Center
05:40PM 40.1261 -74.6067 47° Northeast 316 364 10,900  Level Washington Center
05:41PM 40.1797 -74.5325 47° Northeast 296 341 10,900 60 Level Washington Center
05:42PM 40.2167 -74.4000 70° East 306 352 11,100 60 Climbing New York TRACON
05:43PM 40.1500 -74.4000 180° South 264 304 11,100  Level New York TRACON
05:44PM 40.1167 -74.4833 242° Southwest 257 296 11,100  Level New York TRACON
05:45PM 40.1000 -74.5833 258° West 283 326 11,100 -360 Level New York TRACON
05:46PM 40.1833 -74.5833 360° North 334 384 10,400 -540 Descending New York TRACON
05:47PM 40.2167 -74.4833 66° East 312 359 10,100 -240 Descending New York TRACON
05:48PM 40.2667 -74.4000 52° Northeast 309 356 10,000 -900 Descending New York TRACON
05:49PM 40.3333 -74.3333 37° Northeast 303 349 8,300 -1,500 Descending New York TRACON
05:50PM 40.4000 -74.2667 37° Northeast 291 335 7,100 -600 Descending New York TRACON
05:51PM 40.4667 -74.2000 37° Northeast 288 331 7,100 -300 Level New York TRACON
05:52PM 40.5333 -74.1333 37° Northeast 286 329 6,600 -900 Descending New York TRACON
05:53PM 40.6000 -74.1000 21° North 284 327 5,300 -1,260 Descending New York TRACON
05:54PM 40.6667 -74.0667 21° North 279 321 4,100 -600 Descending New York TRACON
05:55PM 40.7333 -74.0333 21° North 237 273 4,100  Level New York TRACON
05:56PM 40.8000 -73.9833 30° Northeast 243 280 4,100  Level New York TRACON